G8SIB-9 Weather Reports


time (UTC)temp
C
wind
direction
speed
KPH
gust
KPH
rain 1hr
cm
rain 24hr
cm
rain mn
cm
humidity
%
barometer
mb
20260510175857 11 39 17.7 33.8 0.00 0.00 0.00 46 1011.8
20260510174857 11 39 17.7 33.8 0.00 0.00 0.00 48 1011.9
20260510173855 11 40 17.7 32.2 0.00 0.00 0.00 48 1011.9
20260510172855 11 41 16.1 32.2 0.00 0.00 0.00 49 1012.1
20260510171854 12 41 16.1 32.2 0.00 0.00 0.00 48 1012.1
20260510170853 12 44 17.7 33.8 0.00 0.00 0.00 46 1012.2
20260510165852 12 44 17.7 33.8 0.00 0.00 0.00 44 1012.2
20260510164852 12 44 17.7 33.8 0.00 0.00 0.00 45 1012.3
20260510163851 12 44 17.7 33.8 0.00 0.00 0.00 45 1012.3
20260510162850 12 44 17.7 33.8 0.00 0.00 0.00 46 1012.4
20260510161849 13 39 19.3 35.4 0.00 0.00 0.00 43 1012.5
20260510160848 12 38 17.7 35.4 0.00 0.00 0.00 46 1012.6
20260510155848 13 38 17.7 35.4 0.00 0.00 0.00 45 1012.6
20260510154847 13 38 17.7 35.4 0.00 0.00 0.00 46 1012.7
20260510153847 12 38 17.7 35.4 0.00 0.00 0.00 50 1015.7
20260510152842 13 38 17.7 35.4 0.00 0.00 0.00 49 1013.0
20260510151840 13 38 17.7 35.4 0.00 0.00 0.00 48 1013.0
20260510150839 12 38 17.7 35.4 0.00 0.00 0.00 50 1013.0
20260510145838 13 42 17.7 35.4 0.00 0.00 0.00 51 1013.2
20260510144837 12 42 19.3 35.4 0.00 0.00 0.00 49 1013.3
20260510143837 13 40 19.3 37.0 0.00 0.00 0.00 49 1013.4
20260510142835 13 40 19.3 38.6 0.00 0.00 0.00 48 1013.5
20260510141835 13 40 19.3 38.6 0.00 0.00 0.00 51 1013.6
20260510140834 13 40 19.3 38.6 0.00 0.00 0.00 50 1013.6
20260510135833 13 40 20.9 38.6 0.00 0.00 0.00 51 1013.7
20260510134833 13 40 20.9 38.6 0.00 0.00 0.00 49 1013.7
20260510133833 12 40 20.9 40.2 0.00 0.00 0.00 50 1013.8
20260510132831 13 40 20.9 40.2 0.00 0.00 0.00 51 1013.9
20260510131831 13 40 20.9 40.2 0.00 0.00 0.00 50 1013.9
20260510130830 12 40 20.9 40.2 0.00 0.00 0.00 51 1014.0
20260510125829 12 38 20.9 40.2 0.00 0.00 0.00 53 1014.1
20260510124828 12 38 20.9 40.2 0.00 0.00 0.00 53 1014.3
20260510123828 12 35 20.9 40.2 0.00 0.00 0.00 56 1014.4
20260510122827 12 33 20.9 40.2 0.00 0.00 0.00 55 1014.5
20260510121826 12 33 20.9 40.2 0.00 0.00 0.00 56 1014.6
20260510120825 12 30 20.9 38.6 0.00 0.00 0.00 55 1014.6
20260510115824 12 33 19.3 38.6 0.00 0.00 0.00 57 1014.6
20260510114822 12 33 19.3 38.6 0.00 0.00 0.00 60 1014.8
20260510113822 11 35 19.3 37.0 0.00 0.00 0.00 60 1014.9
20260510112822 12 38 19.3 38.6 0.00 0.00 0.00 60 1014.9
20260510111820 12 32 19.3 38.6 0.00 0.00 0.00 60 1015.0
20260510110819 12 34 19.3 37.0 0.00 0.00 0.00 61 1015.0
20260510105819 12 34 19.3 35.4 0.00 0.00 0.00 63 1015.1
20260510104817 12 34 19.3 35.4 0.00 0.00 0.00 62 1015.2
20260510103817 11 32 19.3 37.0 0.00 0.00 0.00 66 1015.3
20260510102816 11 33 19.3 35.4 0.00 0.00 0.00 64 1015.2
20260510101814 11 33 19.3 35.4 0.00 0.00 0.00 65 1015.2
20260510100814 11 34 17.7 35.4 0.00 0.00 0.00 64 1015.2
20260510095813 11 35 17.7 35.4 0.00 0.00 0.00 65 1015.3
20260510094813 11 35 17.7 35.4 0.00 0.00 0.00 66 1015.4
20260510093812 11 35 19.3 35.4 0.00 0.00 0.00 65 1015.4
20260510092811 11 36 19.3 35.4 0.00 0.00 0.00 64 1015.5
20260510091811 11 34 20.9 38.6 0.00 0.00 0.00 64 1015.5
20260510090811 11 36 20.9 38.6 0.00 0.00 0.00 66 1015.6
20260510085810 11 36 19.3 38.6 0.00 0.00 0.00 66 1015.6
20260510084809 11 37 19.3 35.4 0.00 0.00 0.00 65 1015.5
20260510083809 11 35 19.3 35.4 0.00 0.00 0.00 66 1015.5
20260510082809 11 34 19.3 35.4 0.00 0.00 0.00 67 1015.6
20260510081807 11 34 19.3 35.4 0.00 0.00 0.00 66 1015.6
20260510080807 12 32 19.3 37.0 0.00 0.00 0.00 66 1015.6
20260510075807 11 32 19.3 35.4 0.00 0.00 0.00 70 1015.5
20260510074806 11 32 19.3 35.4 0.00 0.00 0.00 72 1015.4
20260510073804 11 32 19.3 35.4 0.00 0.00 0.00 72 1015.4
20260510072803 11 32 19.3 35.4 0.00 0.00 0.00 73 1015.6
20260510071802 11 32 19.3 35.4 0.00 0.00 0.00 72 1015.6
20260510070802 11 32 17.7 33.8 0.00 0.00 0.00 73 1015.5
20260510065802 11 30 17.7 33.8 0.00 0.00 0.00 73 1015.4
20260510064800 11 30 17.7 33.8 0.00 0.00 0.00 75 1015.4
20260510063800 10 27 17.7 32.2 0.00 0.00 0.00 77 1015.5
20260510062759 10 25 16.1 30.6 0.00 0.00 0.00 79 1015.4
20260510061758 10 25 16.1 30.6 0.00 0.00 0.00 80 1015.4
20260510060758 10 22 16.1 29.0 0.00 0.00 0.00 81 1015.4
20260510055757 10 21 14.5 27.4 0.00 0.00 0.00 81 1015.3
20260510054756 10 21 14.5 27.4 0.00 0.00 0.00 82 1015.2
20260510053755 9 19 12.9 25.7 0.00 0.00 0.00 82 1015.1
20260510052755 9 18 12.9 24.1 0.00 0.00 0.00 82 1015.1
20260510051754 8 18 12.9 24.1 0.00 0.00 0.00 83 1015.1
20260510050754 8 16 11.3 22.5 0.00 0.00 0.00 85 1015.1
20260510045753 8 17 11.3 22.5 0.00 0.00 0.00 87 1015.1
20260510044752 8 19 12.9 22.5 0.00 0.00 0.00 87 1015.1
20260510043752 8 19 12.9 24.1 0.00 0.00 0.00 88 1015.1
20260510042751 8 20 12.9 25.7 0.00 0.00 0.00 87 1015.1
20260510041750 8 20 12.9 25.7 0.00 0.00 0.00 87 1015.2
20260510040750 8 20 14.5 27.4 0.00 0.00 0.00 86 1015.3
20260510035750 8 21 12.9 25.7 0.00 0.00 0.00 86 1015.5
20260510034749 8 21 12.9 25.7 0.00 0.00 0.00 90 1018.4
20260510033746 8 21 12.9 25.7 0.00 0.00 0.00 89 1018.5
20260510032742 8 20 12.9 25.7 0.00 0.00 0.00 89 1018.6
20260510031738 8 20 12.9 25.7 0.00 0.00 0.00 89 1018.6
20260510030734 8 20 12.9 25.7 0.00 0.00 0.00 89 1018.7
20260510025730 9 18 12.9 25.7 0.00 0.00 0.00 89 1018.7
20260510024727 8 20 12.9 24.1 0.00 0.00 0.00 90 1019.0
20260510023722 8 17 14.5 27.4 0.00 0.00 0.00 90 1018.8
20260510022719 8 15 14.5 27.4 0.00 0.00 0.00 90 1019.0
20260510021715 8 15 14.5 27.4 0.00 0.00 0.00 90 1019.0
20260510020711 8 12 14.5 27.4 0.00 0.00 0.00 91 1019.1
20260510015706 8 13 12.9 25.7 0.00 0.00 0.00 92 1019.2
20260510014703 8 13 12.9 25.7 0.00 0.00 0.00 92 1019.2
20260510013659 8 14 12.9 24.1 0.00 0.00 0.00 92 1019.2
20260510012656 8 15 11.3 22.5 0.00 0.00 0.00 93 1019.2
20260510011652 8 15 11.3 22.5 0.00 0.00 0.00 93 1019.2
20260510010648 8 16 11.3 22.5 0.00 0.00 0.00 93 1019.2
20260510005645 8 15 11.3 20.9 0.00 0.00 0.00 93 1019.2
20260510004641 8 15 11.3 20.9 0.00 0.00 0.00 93 1019.2
20260510003637 8 14 11.3 20.9 0.00 0.00 0.00 94 1019.3
20260510002633 8 12 11.3 20.9 0.00 0.00 0.00 95 1019.1
20260510001629 8 12 11.3 20.9 0.00 0.00 0.00 95 1019.1
20260510000625 8 12 11.3 20.9 0.00 0.00 0.00 94 1019.1
20260509235621 7 11 9.7 19.3 0.00 0.00 0.00 92 1019.1
20260509234617 7 11 9.7 19.3 0.00 0.00 0.00 92 1019.1
20260509233613 7 9 9.7 19.3 0.00 0.00 0.00 89 1019.1
20260509232610 7 5 8.0 17.7 0.00 0.00 0.00 86 1019.0
20260509231606 7 5 8.0 17.7 0.00 0.00 0.00 84 1019.2
20260509230602 7 4 8.0 16.1 0.00 0.00 0.00 81 1019.2
20260509225558 7 13 8.0 14.5 0.00 0.00 0.00 79 1019.2
20260509224554 7 9 8.0 14.5 0.00 0.00 0.00 75 1019.3
20260509223550 8 18 6.4 14.5 0.00 0.00 0.00 73 1019.2
20260509222546 8 27 6.4 14.5 0.00 0.00 0.00 71 1019.1
20260509221543 8 27 6.4 14.5 0.00 0.00 0.00 71 1019.1
20260509220538 8 36 6.4 12.9 0.00 0.00 0.00 70 1019.0
20260509215534 8 36 6.4 12.9 0.00 0.00 0.00 69 1018.9
20260509214531 8 36 6.4 12.9 0.00 0.00 0.00 69 1018.9
20260509213527 8 35 6.4 14.5 0.00 0.00 0.00 69 1018.8
20260509212522 8 25 6.4 14.5 0.00 0.00 0.00 71 1018.6
20260509211519 8 25 6.4 14.5 0.00 0.00 0.00 71 1018.6
20260509210515 9 30 8.0 14.5 0.00 0.00 0.00 71 1018.6
20260509205512 9 41 8.0 16.1 0.00 0.00 0.00 70 1018.6
20260509204507 9 41 8.0 16.1 0.00 0.00 0.00 70 1018.6
20260509203504 10 53 8.0 16.1 0.00 0.00 0.00 70 1018.5
20260509202500 10 63 8.0 16.1 0.00 0.00 0.00 69 1018.6
20260509201457 10 72 8.0 16.1 0.00 0.00 0.00 67 1018.6
20260509200454 10 72 8.0 16.1 0.00 0.00 0.00 67 1018.6
20260509195449 11 74 8.0 16.1 0.00 0.00 0.00 64 1018.5
20260509194445 11 76 8.0 17.7 0.00 0.00 0.00 61 1018.1
20260509193442 11 76 8.0 17.7 0.00 0.00 0.00 61 1018.1
20260509192438 12 78 8.0 17.7 0.00 0.00 0.00 57 1018.0
20260509191434 13 80 9.7 19.3 0.00 0.00 0.00 54 1017.9
20260509190431 13 80 9.7 19.3 0.00 0.00 0.00 54 1017.9
20260509185427 13 79 11.3 20.9 0.00 0.00 0.00 52 1017.8
20260509184423 14 78 12.9 24.1 0.00 0.00 0.00 50 1017.7
20260509183418 14 76 12.9 24.1 0.00 0.00 0.00 50 1017.7
20260509182415 15 76 12.9 25.7 0.00 0.00 0.00 48 1017.5
20260509181411 15 76 14.5 27.4 0.00 0.00 0.00 46 1017.5
20260509180408 15 76 14.5 27.4 0.00 0.00 0.00 46 1017.5